Weather in Troitsk

Russia / Komi Republic     62°13′49″N   52°42′51″E
temp.,
°C
wind,
m/s
gust,
m/s
humid.,
%
clouds,
%
prec.,
mm/h
press.,
hPa
HPBL,
m
19 april, mon
mon1900:00−5ene11865 0.0 103837
03:00−5e11885 0.0 103916
06:00−3s00655 0.0 1039179
09:00+1nw12445 0.0 10391056
12:00+3nw22385 0.0 10371324
15:00+4wnw23385 0.0 10361354
18:00+2wnw11585 0.0 103510
21:00−2wsw22665 0.0 103518
20 april, tue
tue2000:00−2wsw24715 0.0 103576
03:00−2wsw267523 0.0 1035115
06:00+1w386436 0.0 1034278
09:00+5wnw364653 0.0 1033879
12:00+8wnw35417 0.0 10321177
15:00+9wnw35405 0.0 10311226
18:00+6wnw22585 0.0 103010
21:00+3w11675 0.0 103110
21 april, wed
wed2100:00+1sw11725 0.0 103110
03:000s11745 0.0 103110
06:00+3s12655 0.0 1031113
09:00+8sse23474 0.0 1030638
12:00+11sse353843 0.0 10281359
15:00+12sse4736100 0.0 10261446
18:00+9sse41049100 0.0 1025468
21:00+7sse51358100 0.0 1024676
22 april, thu
thu2200:00+6sse51459100 0.0 1022684
03:00+6sse51360100 0.0 1021853
06:00+6s61362100 0.0 10211121
09:00+5s51178100 0.0 1021983
12:00+4s51195100 0.0 1022837
15:00+4s51196100 0.0 1022850
18:00+4s51093100 0.1 1023950
21:00+4s4109185 0.1 1023537
23 april, fri
fri2300:00+4ssw4987100 0.0 1023721
03:00+4s4991100 0.1 1024599
06:00+4s41094100 0.2 1024554
09:00+5s4992100 0.3 1026532
12:00+8ssw467599 0.0 1026882
15:00+9s3566100 0.0 10261058
18:00+8sse4875100 0.1 1027491
21:00+6sse3108699 0.1 1027397